Regional Weather Roundup
Issued by NWS Jackson, KY

Home | Current Version | Previous Version | Graphics & Text | Print | Product List | Glossary On
Versions: 1 2 3 4 5 6 7 8 9 10 11 12 13 14 15 16 17 18 19 20 21 22 23 24 25 26 27 28 29 30 31 32 33 34 35 36 37 38 39 40 41 42 43 44 45 46 47 48 49 50
714
ASUS43 KJKL 201310
RWRJKL

EAST KENTUCKY HOURLY WEATHER ROUNDUP
NATIONAL WEATHER SERVICE JACKSON KY
800 AM EST TUE FEB 20 2018

NOTE: "FAIR" INDICATES FEW OR NO CLOUDS BELOW 12,000 FEET WITH
NO SIGNIFICANT WEATHER AND/OR OBSTRUCTIONS TO VISIBILITY.

* THESE REPORTS ARE NOT UNDER NWS QUALITY CONTROL AND MAY NOT
  REPORT WEATHER SUCH AS PRECIPITATION AND FOG.

KYZ079-080-083-085-087-088-110-112-115-119-120-201400
...EASTERN KENTUCKY...

CITY           SKY/WX    TMP DP  RH WIND       PRES   REMARKS
JACKSON          N/A     64  54  69 VRB6G17   30.27R
LONDON           N/A     63  55  75 S7        30.28R
SOMERSET*        N/A     61  54  77 MISG      30.28S
WILLIAMSBURG*  PTSUNNY   63  57  82 SE6       30.29R
MIDDLESBORO*   MOCLDY    61  57  85 S6        30.32S
HARLAN APT*    CLOUDY    61  52  72 CALM      30.32S
PIKE CO APT*     N/A     61  51  69 SE7       30.30R
BIG SANDY APT*   N/A     62  52  69 S7        30.29R
MOREHEAD APT*    N/A     64  55  72 S12       30.25R
ASHLAND*         N/A     52  49  89 E3        30.24R
$$

KYZ035-036-041-042-044-050-067-078-099-201400
...CENTRAL KENTUCKY...

CITY           SKY/WX    TMP DP  RH WIND       PRES   REMARKS
MT STERLING*     N/A     63  55  77 SW13G22   30.24R
FLEMING/MASON*   N/A     62  56  81 S10G16    30.21S
DANVILLE*        N/A     61  55  82 S10G16    30.22S
LEXINGTON        N/A     64  56  75 S16       30.20S
FRANKFORT        N/A     66  55  67 S16G23    30.16R
LOUISVILLE     MOCLDY    66  56  70 S9        30.15R
LEBANON*         N/A     64  57  77 S18G25    30.19R
GLASGOW*         N/A     63  56  80 S5        30.20S
BOWLING GREEN    N/A     64  58  80 S10       30.19R
$$

KYZ091>093-OHZ055-061-077-WVZ005-015-034-035-042-201400
...SOUTHERN OHIO/WEST VIRGINIA...

CITY           SKY/WX    TMP DP  RH WIND       PRES   REMARKS
COVINGTON      MOCLDY    64  58  80 S15       30.13R
COLUMBUS       MOCLDY    65  56  72 S16G23    30.15R
DAYTON         MOCLDY    62  57  83 S18G24    30.10S
WILMINGTON       N/A     60  56  86 S16       30.14R
HUNTINGTON       N/A     63  50  62 S7        30.24R
CHARLESTON       N/A     65  51  60 S8        30.27R
BECKLEY          N/A     55  50  83 SE8       30.36R
BLUEFIELD        N/A     55  48  77 VRB3      30.39R
LOGAN CO APT*    N/A     63  52  67 S8        30.32R
$$

VAZ002-007-008-TNZ017-027-036-066-071-201400
...SOUTHWEST VIRGINIA/EAST TENNESSEE...

CITY           SKY/WX    TMP DP  RH WIND       PRES   REMARKS
WISE*            N/A     57  52  82 S10G18    30.36S
JONESVILLE*      N/A     46  46 100 CALM      30.37R FOG
ABINGDON*        N/A     50  49  95 CALM      30.37R
BRISTOL          N/A     51  51 100 CALM      30.35R
MORRISTOWN*    SUNNY     52  50  93 CALM      30.33R
SEVIERVILLE*   SUNNY     46  46 100 CALM      30.32R
KNOXVILLE        N/A     55  55 100 N3        30.31R
LAFOLLETTE*    MOSUNNY   66  57  72 SW14G21   30.33S
OAK RIDGE        N/A     57  57 100 VRB3      30.33R
CROSSVILLE     MOCLDY    59  55  87 S9        30.32R
NASHVILLE      MOCLDY    64  57  78 S8        30.22R
$$

...KEY TO REMARKS...
VSB - VISIBILITY IN MILES
WCI - WIND CHILL INDEX
HX  - HEAT INDEX

$$




USA.gov is the U.S. government's official web portal to all federal, state and local government web resources and services.